Location: Caltech
(34.1382°N, 118.1253°W)
Time: 05:24:10
(UTC-07:00)

SL-08 RB Rocket - Visible Passes

Search period start: 04 September 2015 00:00
Search period end: 14 September 2015 00:00
Orbit: 650 x 685 km, 98.1° (Epoch: 02 September)

Date Brightness Start Highest point End Pass type
(mag) Time Alt. Az. Time Alt. Az. Time Alt. Az.
04 Sep 6.3 22:12:36 15° N 22:12:36 15° N 22:13:24 10° N visible
05 Sep 6.6 22:45:03 13° NNW 22:45:03 13° NNW 22:45:29 10° NNW visible
06 Sep 6.3 21:39:19 11° NNE 21:39:19 11° NNE 21:39:28 10° NNE visible
07 Sep 6.4 22:11:46 12° N 22:11:46 12° N 22:12:12 10° N visible
08 Sep 6.8 22:44:12 11° NNW 22:44:12 11° NNW 22:44:19 10° NNW visible
10 Sep 6.6 22:10:55 10° N 22:10:55 10° N 22:11:00 10° N visible
